VK4VP-5 Buderim QLD AU current weather conditions

sailwx.info

Wind from 194 at 6 knots gusting 14

Air temperature 17.8° C
Dewpoint 8.9° C

Last reported at 2015-Aug-30 23:48 UTC.
Time now 2015-Aug-31 00:41 UTC

Location: S 26°42' E 153°05'.
View on Google Maps.

See reports from other nearby stations

  
Tides and Currents Weather Stations Pressure Air Temp Water Temp Dewpoint Dewpoint Depression Visibility Wind Speed Wind Dir Waves Ship Positions
date/time (UTC)wind fromknots sea level pressurealtimeterstation pressurevisibilityair tempwater tempwave heightnotes
2015-Aug-30 23:48 194 6 gusting 14 17.8
2015-Aug-30 23:38 196 5 gusting 12 17.8
2015-Aug-30 23:28 215 4 gusting 11 17.8
2015-Aug-30 23:18 237 5 gusting 14 17.8
2015-Aug-30 23:08 232 4 gusting 9 17.8
2015-Aug-30 22:58 236 2 gusting 7 17.2
2015-Aug-30 22:48 242 2 gusting 8 17.2
2015-Aug-30 22:38 238 1 gusting 9 16.7
2015-Aug-30 22:35 224 1 gusting 6 16.7
2015-Aug-30 22:28 215 3 gusting 9 16.1
2015-Aug-30 22:18 242 2 gusting 8 16.1
2015-Aug-30 22:15 243 2 gusting 7 15.6
2015-Aug-30 22:08 238 3 gusting 8 15.6
2015-Aug-30 21:58 238 0 gusting 7 15.0
2015-Aug-30 21:48 238 1 gusting 7 13.9
2015-Aug-30 21:38 238 0 gusting 3 13.3
2015-Aug-30 21:28 238 0 gusting 5 12.2
2015-Aug-30 21:18 238 11.1
2015-Aug-30 21:15 11.1
2015-Aug-30 21:08 247 11.1
2015-Aug-30 20:58 246 11.1
2015-Aug-30 20:48 246 10.6
2015-Aug-30 20:45 246 10.6
2015-Aug-30 20:38 246 10.0
2015-Aug-30 20:28 246 10.0
2015-Aug-30 20:18 246 10.0
2015-Aug-30 20:08 246 10.0
2015-Aug-30 19:58 246 10.0
2015-Aug-30 19:55 246 10.0
2015-Aug-30 19:48 246 10.0
2015-Aug-30 19:38 246 10.0
2015-Aug-30 19:28 246 10.0
2015-Aug-30 19:18 246 0 gusting 2 10.6
2015-Aug-30 19:08 246 10.6
2015-Aug-30 18:58 247 10.6
2015-Aug-30 18:48 10.6
2015-Aug-30 18:38 247 11.1
2015-Aug-30 18:28 246 11.1
2015-Aug-30 18:18 246 11.7
2015-Aug-30 18:08 246 0 gusting 2 11.7
2015-Aug-30 18:05 246 0 gusting 1 11.7
2015-Aug-30 17:58 246 0 gusting 2 11.7
2015-Aug-30 17:48 246 12.2
2015-Aug-30 17:38 246 12.2
2015-Aug-30 17:35 246 0 gusting 2 12.8
2015-Aug-30 17:28 246 0 gusting 2 12.8
2015-Aug-30 17:18 246 0 gusting 6 13.3
2015-Aug-30 17:08 246 1 gusting 6 13.3
2015-Aug-30 16:58 248 3 gusting 8 13.3
2015-Aug-30 16:55 247 3 gusting 8 13.3
2015-Aug-30 16:48 244 1 gusting 7 13.3
2015-Aug-30 16:45 243 1 gusting 5 13.3
2015-Aug-30 16:38 244 2 gusting 8 13.3
2015-Aug-30 16:35 243 3 gusting 8 13.3
2015-Aug-30 16:28 241 1 gusting 8 13.3
2015-Aug-30 16:25 241 1 gusting 6 13.3
2015-Aug-30 16:18 241 1 gusting 5 13.3
2015-Aug-30 16:08 241 1 gusting 6 13.3
2015-Aug-30 16:05 241 1 gusting 6 13.3
2015-Aug-30 15:58 240 1 gusting 6 13.3
2015-Aug-30 15:48 238 1 gusting 5 13.3
2015-Aug-30 15:45 238 0 gusting 5 13.3
2015-Aug-30 15:38 238 0 gusting 5 13.3
2015-Aug-30 15:35 238 0 gusting 5 13.3
2015-Aug-30 15:28 238 1 gusting 6 13.3
2015-Aug-30 15:25 238 1 gusting 6 13.3
2015-Aug-30 15:18 238 1 gusting 5 12.8
2015-Aug-30 15:08 238 0 gusting 7 12.8
2015-Aug-30 14:58 238 0 gusting 7 12.2
2015-Aug-30 14:55 238 0 gusting 5 12.2
2015-Aug-30 14:48 238 0 gusting 5 12.2
2015-Aug-30 14:45 238 0 gusting 2 12.2
2015-Aug-30 14:38 238 1 gusting 2 12.2
2015-Aug-30 14:28 238 11.7
2015-Aug-30 14:18 238 0 gusting 2 11.7
2015-Aug-30 14:15 238 11.7
2015-Aug-30 14:08 239 11.7
2015-Aug-30 13:58 238 11.7
2015-Aug-30 13:48 238 0 gusting 1 12.2
2015-Aug-30 13:38 238 11.7
2015-Aug-30 13:35 238 0 gusting 2 11.7
2015-Aug-30 13:28 238 0 gusting 3 11.7
2015-Aug-30 13:18 238 0 gusting 3 11.7
2015-Aug-30 13:08 238 11.1
2015-Aug-30 13:05 238 11.1
2015-Aug-30 12:58 238 11.1
2015-Aug-30 12:48 11.1
2015-Aug-30 12:38 11.7
2015-Aug-30 12:28 11.7
2015-Aug-30 12:25 11.7
2015-Aug-30 12:18 12.2
2015-Aug-30 12:08 238 12.2
2015-Aug-30 11:58 238 12.8
2015-Aug-30 11:55 238 12.8
2015-Aug-30 11:48 239 12.8
2015-Aug-30 11:38 238 13.3
2015-Aug-30 11:28 238 13.9
2015-Aug-30 11:25 239 14.4
2015-Aug-30 11:18 238 15.0
2015-Aug-30 11:08 238 15.6
2015-Aug-30 10:58 238 15.6
2015-Aug-30 10:48 238 15.6
2015-Aug-30 10:38 238 15.6
2015-Aug-30 10:28 239 15.6
2015-Aug-30 10:18 239 15.6
2015-Aug-30 10:15 239 15.6
2015-Aug-30 10:08 238 16.1
2015-Aug-30 09:58 239 16.1
2015-Aug-30 09:55 239 16.1
2015-Aug-30 09:48 238 16.1
2015-Aug-30 09:38 239 16.1
2015-Aug-30 09:28 239 16.1
2015-Aug-30 09:18 239 15.6
2015-Aug-30 09:15 239 15.6
2015-Aug-30 09:08 238 15.6
2015-Aug-30 08:58 238 16.1
2015-Aug-30 08:48 238 16.1
2015-Aug-30 08:38 238 16.7
2015-Aug-30 08:28 238 16.7
2015-Aug-30 08:18 239 17.2
2015-Aug-30 08:08 238 17.2
2015-Aug-30 07:58 238 17.8
2015-Aug-30 07:55 238 17.8
2015-Aug-30 07:48 238 18.3
2015-Aug-30 07:38 239 18.9
2015-Aug-30 07:35 239 18.9
2015-Aug-30 07:28 238 0 gusting 3 18.9
2015-Aug-30 07:18 238 0 gusting 3 19.4
2015-Aug-30 07:08 238 1 gusting 5 20.0
2015-Aug-30 06:58 230 1 gusting 6 20.6
2015-Aug-30 06:48 223 3 gusting 8 20.6
2015-Aug-30 06:45 226 4 gusting 9 20.6
2015-Aug-30 06:38 232 3 gusting 9 21.1
2015-Aug-30 06:28 233 4 gusting 10 21.1
2015-Aug-30 06:18 229 4 gusting 9 21.1
2015-Aug-30 06:08 218 4 gusting 11 21.7
2015-Aug-30 05:58 242 4 gusting 9 21.7
2015-Aug-30 05:55 240 3 gusting 9 21.7
2015-Aug-30 05:48 228 3 gusting 9 21.7
2015-Aug-30 05:38 250 6 gusting 15 21.7
2015-Aug-30 05:28 243 2 gusting 8 22.2
2015-Aug-30 05:18 226 3 gusting 9 21.7
2015-Aug-30 05:15 221 2 gusting 9 22.2
2015-Aug-30 05:08 232 4 gusting 13 22.2
2015-Aug-30 05:05 237 4 gusting 13 22.2
2015-Aug-30 04:58 238 3 gusting 10 22.2
2015-Aug-30 04:55 234 4 gusting 10 22.2
2015-Aug-30 04:48 236 4 gusting 12 21.7
2015-Aug-30 04:45 233 5 gusting 12 21.7
2015-Aug-30 04:38 239 4 gusting 11 22.2
2015-Aug-30 04:28 277 3 gusting 10 22.2
2015-Aug-30 04:18 294 4 gusting 9 21.7
2015-Aug-30 04:08 231 3 gusting 10 21.7
2015-Aug-30 04:05 228 4 gusting 10 21.7
2015-Aug-30 03:58 240 3 gusting 9 21.7
2015-Aug-30 03:55 270 2 gusting 9 21.7
2015-Aug-30 03:48 273 4 gusting 9 21.7
2015-Aug-30 03:38 301 4 gusting 10 21.7
2015-Aug-30 03:28 229 3 gusting 8 21.7
2015-Aug-30 03:18 240 3 gusting 8 21.1
2015-Aug-30 03:15 237 4 gusting 9 21.1
2015-Aug-30 03:08 229 3 gusting 9 21.1
2015-Aug-30 02:58 209 3 gusting 9 20.6
2015-Aug-30 02:48 233 5 gusting 10 20.6
2015-Aug-30 02:45 240 5 gusting 11 20.6
2015-Aug-30 02:38 253 4 gusting 11 20.6
2015-Aug-30 02:35 251 5 gusting 11 20.6
2015-Aug-30 02:28 247 5 gusting 10 20.6
2015-Aug-30 02:18 216 5 gusting 11 20.6
2015-Aug-30 02:15 214 5 gusting 11 20.0
2015-Aug-30 02:08 207 6 gusting 13 20.0
2015-Aug-30 02:05 209 6 gusting 13 20.0
2015-Aug-30 01:58 220 6 gusting 16 20.0
2015-Aug-30 01:55 214 6 gusting 16 19.4
2015-Aug-30 01:48 216 7 gusting 16 19.4
2015-Aug-30 01:38 224 6 gusting 15 19.4
2015-Aug-30 01:35 227 6 gusting 15 19.4
2015-Aug-30 01:28 239 6 gusting 15 19.4
2015-Aug-30 01:18 218 6 gusting 16 18.9
2015-Aug-30 01:08 213 8 gusting 18 18.9
2015-Aug-30 01:05 211 8 gusting 18 18.9
2015-Aug-30 00:58 222 6 gusting 14 18.9
2015-Aug-30 00:48 206 4 gusting 11 18.9
2015-Aug-30 00:38 209 5 gusting 15 18.9
2015-Aug-30 00:28 219 6 gusting 17 18.3
2015-Aug-30 00:18 206 6 gusting 13 18.3
2015-Aug-30 00:08 227 3 gusting 12 17.8
2015-Aug-30 00:05 222 4 gusting 12 17.8
2015-Aug-29 23:58 214 5 gusting 14 17.8
2015-Aug-29 23:48 225 6 gusting 12 17.8
2015-Aug-29 23:45 223 6 gusting 12 17.8
2015-Aug-29 23:38 215 6 gusting 15 17.8
2015-Aug-29 23:28 214 6 gusting 15 17.8
2015-Aug-29 23:18 216 7 gusting 17 17.2
2015-Aug-29 23:08 234 6 gusting 15 16.7
2015-Aug-29 22:58 228 6 gusting 12 16.7
2015-Aug-29 22:48 232 4 gusting 11 16.1
2015-Aug-29 22:45 228 4 gusting 12 16.1
2015-Aug-29 22:41 228 4 gusting 12 16.1
2015-Aug-29 22:31 225 4 gusting 15 15.0
2015-Aug-29 22:21 223 2 gusting 8 14.4
2015-Aug-29 22:11 214 1 gusting 6 14.4
2015-Aug-29 22:05 214 1 gusting 6 13.9
2015-Aug-29 22:01 214 1 gusting 5 13.9
2015-Aug-29 21:51 210 0 gusting 7 13.9
2015-Aug-29 21:45 205 0 gusting 5 14.4
2015-Aug-29 21:41 206 1 gusting 5 14.4
2015-Aug-29 21:35 205 0 gusting 2 14.4
2015-Aug-29 21:31 205 14.4
2015-Aug-29 21:21 205 14.4
2015-Aug-29 21:15 206 14.4
2015-Aug-29 21:11 14.4
2015-Aug-29 21:01 14.4
2015-Aug-29 20:55 14.4
2015-Aug-29 20:51 14.4
2015-Aug-29 20:45 14.4
2015-Aug-29 20:41 14.4
2015-Aug-29 20:31 14.4
2015-Aug-29 20:25 14.4
2015-Aug-29 20:21 14.4
2015-Aug-29 20:15 14.4
2015-Aug-29 20:11 14.4
2015-Aug-29 20:01 215 14.4
2015-Aug-29 19:51 215 14.4
2015-Aug-29 19:41 215 15.0
2015-Aug-29 19:31 15.0
2015-Aug-29 19:21 215 15.0
2015-Aug-29 19:15 215 15.0
2015-Aug-29 19:11 215 15.0
2015-Aug-29 19:01 215 15.0
2015-Aug-29 18:51 215 15.0
2015-Aug-29 18:41 215 15.0
2015-Aug-29 18:31 215 15.0
2015-Aug-29 18:25 15.0
2015-Aug-29 18:21 15.0
2015-Aug-29 18:11 215 15.0
2015-Aug-29 18:01 215 15.0
2015-Aug-29 17:51 215 15.0
2015-Aug-29 17:41 215 15.0
2015-Aug-29 17:31 215 15.0
2015-Aug-29 17:21 215 0 gusting 3 15.0
2015-Aug-29 17:11 215 15.6
2015-Aug-29 17:05 215 15.6
2015-Aug-29 17:01 215 15.6
2015-Aug-29 16:55 215 15.6
2015-Aug-29 16:51 15.6
2015-Aug-29 16:41 15.6
2015-Aug-29 16:35 15.6
2015-Aug-29 16:31 15.6
2015-Aug-29 16:25 15.6
2015-Aug-29 16:21 15.6
2015-Aug-29 16:11 15.6
2015-Aug-29 16:05 15.6
2015-Aug-29 16:01 15.6
2015-Aug-29 15:51 15.6
2015-Aug-29 15:45 15.6
2015-Aug-29 15:41 15.6
2015-Aug-29 15:31 15.6
2015-Aug-29 15:25 15.6
2015-Aug-29 15:21 15.6
2015-Aug-29 15:11 15.6
2015-Aug-29 15:05 15.6
2015-Aug-29 15:01 215 15.6
2015-Aug-29 14:51 215 15.6
2015-Aug-29 14:41 215 15.6
2015-Aug-29 14:31 215 15.6
2015-Aug-29 14:21 215 15.6
2015-Aug-29 14:11 216 15.6
2015-Aug-29 14:01 215 15.6
2015-Aug-29 13:51 215 15.6
2015-Aug-29 13:45 215 15.6
2015-Aug-29 13:41 215 15.6
2015-Aug-29 13:35 215 15.6
2015-Aug-29 13:31 215 0 gusting 5 15.6
2015-Aug-29 13:21 215 0 gusting 5 15.6
2015-Aug-29 13:11 215 0 gusting 6 15.6
2015-Aug-29 13:01 215 15.6
2015-Aug-29 12:55 215 15.6
2015-Aug-29 12:51 215 15.6
2015-Aug-29 12:41 215 15.6
2015-Aug-29 12:31 215 0 gusting 3 15.6
2015-Aug-29 12:25 215 15.6
2015-Aug-29 12:21 215 15.6
2015-Aug-29 12:15 215 0 gusting 1 15.6
2015-Aug-29 12:11 215 0 gusting 2 15.6
2015-Aug-29 12:01 211 2 gusting 6 15.6
2015-Aug-29 11:51 209 0 gusting 5 15.6
2015-Aug-29 11:41 15.6
2015-Aug-29 11:31 210 15.6
2015-Aug-29 11:21 15.6
2015-Aug-29 11:11 210 15.6
2015-Aug-29 11:01 210 0 gusting 2 15.6
2015-Aug-29 10:51 209 0 gusting 3 15.6
2015-Aug-29 10:41 213 2 gusting 7 15.6
2015-Aug-29 10:31 217 2 gusting 7 15.6
2015-Aug-29 10:21 217 3 gusting 8 15.6
2015-Aug-29 10:11 211 5 gusting 15 15.6
2015-Aug-29 10:05 206 5 gusting 9 15.6
2015-Aug-29 09:34 214 6 gusting 15 15.6
2015-Aug-29 09:17 238 5 gusting 15 16.1
2015-Aug-29 09:07 220 6 gusting 16 16.1
2015-Aug-29 08:57 215 9 gusting 17 16.1
2015-Aug-29 08:54 214 8 gusting 17 16.1
2015-Aug-29 08:47 207 6 gusting 16 16.7
2015-Aug-29 08:37 209 6 gusting 15 17.2
2015-Aug-29 08:34 206 6 gusting 11 17.2
2015-Aug-29 08:27 189 6 gusting 17 18.3
2015-Aug-29 08:17 176 19.4
2015-Aug-29 08:14 176 19.4
2015-Aug-29 08:07 176 19.4
2015-Aug-29 07:57 176 19.4
2015-Aug-29 07:47 176 19.4
2015-Aug-29 07:37 19.4
2015-Aug-29 07:27 176 19.4
2015-Aug-29 07:17 20.0
2015-Aug-29 07:14 164 20.0
2015-Aug-29 07:07 165 20.0
2015-Aug-29 06:57 165 20.0
2015-Aug-29 06:54 165 20.0
2015-Aug-29 06:47 165 20.0
2015-Aug-29 06:37 165 20.6
2015-Aug-29 06:27 20.6
2015-Aug-29 06:17 165 20.6
2015-Aug-29 06:14 165 20.6
2015-Aug-29 06:07 164 20.6
2015-Aug-29 05:57 165 20.6
2015-Aug-29 05:54 165 20.6
2015-Aug-29 05:47 165 20.6
2015-Aug-29 05:37 181 0 gusting 5 21.1
2015-Aug-29 05:27 212 20.6
2015-Aug-29 05:24 212 20.6
2015-Aug-29 05:17 212 20.6
2015-Aug-29 05:07 212 20.6
2015-Aug-29 04:57 212 20.6
2015-Aug-29 04:51 212 20.6
2015-Aug-29 04:41 212 20.6
2015-Aug-29 04:34 205 20.6
2015-Aug-29 04:31 188 21.1
2015-Aug-29 04:21 189 0 gusting 8 21.1
2015-Aug-29 04:11 191 0 gusting 5 20.6
2015-Aug-29 04:01 191 0 gusting 5 20.6
2015-Aug-29 03:54 191 0 gusting 5 20.6
2015-Aug-29 03:51 191 0 gusting 8 20.6
2015-Aug-29 03:41 191 20.6
2015-Aug-29 03:31 191 20.6
2015-Aug-29 03:21 190 20.6
2015-Aug-29 03:14 191 20.0
2015-Aug-29 03:11 191 0 gusting 3 20.6
2015-Aug-29 03:04 191 0 gusting 3 20.6
2015-Aug-29 03:01 190 0 gusting 2 20.0
2015-Aug-29 02:54 191 20.6
2015-Aug-29 02:51 191 0 gusting 3 20.6
2015-Aug-29 02:44 191 20.6
2015-Aug-29 02:41 191 20.6
2015-Aug-29 02:31 191 0 gusting 3 20.6
2015-Aug-29 02:21 191 0 gusting 3 20.6
2015-Aug-29 02:11 191 0 gusting 3 20.6
2015-Aug-29 02:04 191 0 gusting 6 20.6
2015-Aug-29 02:01 191 0 gusting 6 20.6
2015-Aug-29 01:51 193 2 gusting 6 20.6
2015-Aug-29 01:44 195 1 gusting 6 21.1
2015-Aug-29 01:41 195 1 gusting 6 21.1
2015-Aug-29 01:31 197 1 gusting 6 20.6
2015-Aug-29 01:21 198 2 gusting 7 20.6
2015-Aug-29 01:14 199 2 gusting 6 20.6
2015-Aug-29 01:11 199 2 gusting 6 20.6
2015-Aug-29 01:01 193 1 gusting 8 20.6
2015-Aug-29 00:51 172 1 gusting 5 20.6
2015-Aug-29 00:41 172 1 gusting 5 21.1
2015-Aug-29 00:31 161 3 gusting 9 20.6
2015-Aug-29 00:21 150 0 gusting 6 21.1
2015-Aug-29 00:11 150 1 gusting 6 20.6
2015-Aug-29 00:01 148 1 gusting 7 20.6